Location: Chmeln�
(49.6483°N, 14.9871°E)
Time: 05:55:09
(UTC+00:00)

Resurs 01 Rocket - Pass Details

Date: 18 September 2020
Orbit: 633 x 645 km, 98.0° (Epoch: 27 October)

Event Time Altitude Azimuth Distance (km) Brightness Sun altitude
Exits shadow 20:56:48 14° 268° (W) 1,777 4.2 -33.1°
Maximum altitude 20:57:04 14° 272° (W) 1,774 4.2 -33.1°
Drops below altitude 10° 20:59:30 10° 305° (NW) 2,052 5.0 -33.3°
Sets 21:02:43 0° 330° (NNW) 2,967 6.1 -33.6°
